• In Russia
  • List of Countries
  • For 7 days
  • Water Temperature
  • Satellite Maps
  • Weather Map
  • Weather Widgets
  • user-avatar
    Login

    Hourly Weather Samarqand

    Today, 26 May, Friday

    Time Temperature Precipitation Wind Pressure Humidity
    00:00 +24°C° 0.1 mm 3 mps 698 mmHg 44%
    01:00 +24°C° 0.1 mm 3 mps 698 mmHg 44%
    02:00 +22°C° 0 mm 3 mps 698 mmHg 43%
    03:00 +23°C° 0 mm 2 mps 698 mmHg 41%
    04:00 +22°C° 0 mm 3 mps 698 mmHg 40%
    05:00 +24°C° 0 mm 3 mps 698 mmHg 36%
    06:00 +26°C° 0 mm 2 mps 699 mmHg 33%
    07:00 +28°C° 0 mm 2 mps 700 mmHg 29%
    08:00 +29°C° 0 mm 2 mps 700 mmHg 26%
    09:00 +31°C° 0 mm 2 mps 700 mmHg 23%
    10:00 +32°C° 0 mm 2 mps 700 mmHg 20%
    11:00 +34°C° 0 mm 2 mps 700 mmHg 19%
    12:00 +35°C° 0 mm 2 mps 700 mmHg 17%
    13:00 +35°C° 0 mm 2 mps 700 mmHg 15%
    14:00 +35°C° 0 mm 2 mps 700 mmHg 15%
    15:00 +35°C° 0 mm 2 mps 700 mmHg 15%
    16:00 +35°C° 0 mm 2 mps 699 mmHg 15%
    17:00 +33°C° 0 mm 3 mps 699 mmHg 19%
    18:00 +30°C° 0 mm 3 mps 699 mmHg 22%
    19:00 +28°C° 0 mm 3 mps 698 mmHg 25%
    20:00 +27°C° 0 mm 3 mps 698 mmHg 26%
    21:00 +26°C° 0 mm 3 mps 699 mmHg 26%
    22:00 +26°C° 0 mm 3 mps 699 mmHg 27%
    23:00 +25°C° 0 mm 3 mps 698 mmHg 26%

    Tomorrow, 27 May, Saturday

    Time Temperature Precipitation Wind Pressure Humidity
    00:00 +25°C° 0 mm 3 mps 698 mmHg 26%
    01:00 +24°C° 0 mm 2 mps 697 mmHg 25%
    02:00 +24°C° 0 mm 2 mps 697 mmHg 24%
    03:00 +24°C° 0 mm 2 mps 697 mmHg 23%
    04:00 +23°C° 0 mm 2 mps 697 mmHg 21%
    05:00 +25°C° 0 mm 2 mps 698 mmHg 19%
    06:00 +28°C° 0 mm 2 mps 698 mmHg 17%
    07:00 +30°C° 0 mm 2 mps 699 mmHg 15%
    08:00 +31°C° 0 mm 2 mps 699 mmHg 15%
    09:00 +33°C° 0 mm 1 mps 699 mmHg 14%
    10:00 +34°C° 0 mm 1 mps 699 mmHg 14%
    11:00 +35°C° 0 mm 1 mps 699 mmHg 13%
    12:00 +35°C° 0 mm 1 mps 699 mmHg 13%
    13:00 +36°C° 0 mm 1 mps 698 mmHg 12%
    14:00 +37°C° 0 mm 2 mps 698 mmHg 12%
    15:00 +36°C° 0 mm 2 mps 698 mmHg 12%
    16:00 +36°C° 0 mm 2 mps 697 mmHg 12%
    17:00 +34°C° 0 mm 2 mps 697 mmHg 16%
    18:00 +30°C° 0 mm 2 mps 697 mmHg 20%
    19:00 +28°C° 0 mm 1 mps 696 mmHg 23%
    20:00 +27°C° 0 mm 2 mps 697 mmHg 23%
    21:00 +27°C° 0 mm 2 mps 697 mmHg 23%
    22:00 +26°C° 0 mm 2 mps 697 mmHg 23%
    23:00 +26°C° 0 mm 2 mps 697 mmHg 24%

    Day after tomorrow, 28 May, Sunday

    Time Temperature Precipitation Wind Pressure Humidity
    00:00 +25°C° 0 mm 3 mps 696 mmHg 24%
    01:00 +25°C° 0 mm 3 mps 696 mmHg 25%
    02:00 +24°C° 0 mm 3 mps 696 mmHg 25%
    03:00 +24°C° 0 mm 3 mps 696 mmHg 25%
    04:00 +24°C° 0 mm 3 mps 696 mmHg 26%
    05:00 +26°C° 0 mm 3 mps 696 mmHg 24%
    06:00 +27°C° 0 mm 3 mps 697 mmHg 21%
    07:00 +29°C° 0 mm 3 mps 697 mmHg 19%
    08:00 +31°C° 0 mm 2 mps 698 mmHg 17%
    09:00 +34°C° 0 mm 2 mps 698 mmHg 15%
    10:00 +35°C° 0 mm 2 mps 698 mmHg 12%
    11:00 +35°C° 0 mm 1 mps 698 mmHg 12%
    12:00 +35°C° 0 mm 1 mps 698 mmHg 11%
    13:00 +36°C° 0 mm 1 mps 698 mmHg 10%
    14:00 +36°C° 0 mm 1 mps 697 mmHg 10%
    15:00 +36°C° 0 mm 1 mps 697 mmHg 10%
    16:00 +36°C° 0 mm 1 mps 697 mmHg 10%
    17:00 +35°C° 0 mm 2 mps 697 mmHg 13%
    18:00 +31°C° 0 mm 2 mps 697 mmHg 17%
    19:00 +29°C° 0 mm 3 mps 696 mmHg 20%
    20:00 +28°C° 0 mm 3 mps 696 mmHg 20%
    21:00 +27°C° 0 mm 3 mps 697 mmHg 20%
    22:00 +27°C° 0 mm 3 mps 697 mmHg 20%
    23:00 +26°C° 0 mm 3 mps 696 mmHg 19%

    29 May, Monday

    Time Temperature Precipitation Wind Pressure Humidity
    00:00 +26°C° 0 mm 3 mps 696 mmHg 18%
    01:00 +25°C° 0 mm 3 mps 696 mmHg 18%
    02:00 +25°C° 0 mm 3 mps 696 mmHg 17%
    03:00 +25°C° 0 mm 2 mps 695 mmHg 16%
    04:00 +24°C° 0 mm 2 mps 695 mmHg 15%
    05:00 +27°C° 0 mm 2 mps 696 mmHg 14%
    06:00 +29°C° 0 mm 2 mps 696 mmHg 14%
    07:00 +31°C° 0 mm 2 mps 697 mmHg 13%
    08:00 +34°C° 0 mm 2 mps 697 mmHg 11%
    09:00 +36°C° 0 mm 3 mps 697 mmHg 9%
    10:00 +38°C° 0 mm 3 mps 697 mmHg 6%
    11:00 +38°C° 0 mm 3 mps 697 mmHg 7%
    12:00 +40°C° 0 mm 4 mps 697 mmHg 7%
    13:00 +41°C° 0 mm 4 mps 696 mmHg 7%
    14:00 +41°C° 0 mm 4 mps 696 mmHg 8%
    15:00 +40°C° 0 mm 5 mps 696 mmHg 8%
    16:00 +40°C° 0 mm 5 mps 696 mmHg 9%
    17:00 +36°C° 0 mm 4 mps 696 mmHg 12%
    18:00 +34°C° 0 mm 4 mps 695 mmHg 15%
    19:00 +30°C° 0 mm 3 mps 695 mmHg 18%
    20:00 +29°C° 0 mm 3 mps 696 mmHg 20%
    21:00 +28°C° 0 mm 3 mps 696 mmHg 22%
    22:00 +27°C° 0 mm 2 mps 697 mmHg 25%
    23:00 +26°C° 0.2 mm 2 mps 697 mmHg 31%

    30 May, Tuesday

    Time Temperature Precipitation Wind Pressure Humidity
    00:00 +25°C° 0.2 mm 2 mps 697 mmHg 38%
    01:00 +23°C° 0.2 mm 1 mps 698 mmHg 44%
    02:00 +23°C° 0 mm 2 mps 698 mmHg 44%
    03:00 +23°C° 0 mm 2 mps 699 mmHg 44%
    04:00 +23°C° 0 mm 2 mps 700 mmHg 44%
    05:00 +22°C° 0 mm 3 mps 700 mmHg 44%
    06:00 +22°C° 0 mm 4 mps 701 mmHg 43%
    07:00 +22°C° 0 mm 4 mps 701 mmHg 42%
    08:00 +23°C° 0 mm 4 mps 701 mmHg 38%
    09:00 +25°C° 0 mm 4 mps 701 mmHg 35%
    10:00 +26°C° 0 mm 4 mps 702 mmHg 31%
    11:00 +27°C° 0 mm 4 mps 701 mmHg 29%
    12:00 +28°C° 0 mm 4 mps 701 mmHg 26%
    13:00 +28°C° 0 mm 3 mps 701 mmHg 24%
    14:00 +28°C° 0 mm 4 mps 701 mmHg 24%
    15:00 +28°C° 0 mm 5 mps 701 mmHg 24%
    16:00 +27°C° 0 mm 6 mps 700 mmHg 24%
    17:00 +26°C° 0 mm 6 mps 700 mmHg 25%
    18:00 +23°C° 0 mm 6 mps 700 mmHg 26%
    19:00 +21°C° 0 mm 6 mps 700 mmHg 27%
    20:00 +20°C° 0 mm 6 mps 699 mmHg 28%
    21:00 +19°C° 0 mm 5 mps 699 mmHg 28%
    22:00 +17°C° 0 mm 5 mps 699 mmHg 29%
    23:00 +17°C° 0 mm 5 mps 699 mmHg 31%

    31 May, Wednesday

    Time Temperature Precipitation Wind Pressure Humidity
    00:00 +16°C° 0 mm 5 mps 698 mmHg 33%
    01:00 +16°C° 0 mm 5 mps 698 mmHg 34%
    02:00 +15°C° 0 mm 5 mps 698 mmHg 36%
    03:00 +15°C° 0 mm 4 mps 698 mmHg 37%
    04:00 +14°C° 0 mm 4 mps 697 mmHg 38%
    05:00 +17°C° 0 mm 4 mps 698 mmHg 35%
    06:00 +17°C° 0 mm 5 mps 698 mmHg 32%
    07:00 +20°C° 0 mm 5 mps 699 mmHg 29%
    08:00 +22°C° 0 mm 5 mps 699 mmHg 26%
    09:00 +23°C° 0 mm 5 mps 699 mmHg 23%
    10:00 +26°C° 0 mm 4 mps 699 mmHg 20%
    11:00 +27°C° 0 mm 4 mps 699 mmHg 19%
    12:00 +28°C° 0 mm 4 mps 698 mmHg 17%
    13:00 +29°C° 0 mm 3 mps 698 mmHg 16%
    14:00 +29°C° 0 mm 3 mps 698 mmHg 16%
    15:00 +29°C° 0 mm 4 mps 698 mmHg 16%
    16:00 +29°C° 0 mm 4 mps 697 mmHg 16%
    17:00 +27°C° 0 mm 4 mps 697 mmHg 19%
    18:00 +25°C° 0 mm 4 mps 697 mmHg 22%
    19:00 +22°C° 0 mm 4 mps 697 mmHg 25%
    20:00 +21°C° 0 mm 3 mps 697 mmHg 26%
    21:00 +20°C° 0 mm 3 mps 697 mmHg 27%
    22:00 +19°C° 0 mm 3 mps 697 mmHg 28%
    23:00 +19°C° 0 mm 2 mps 696 mmHg 29%
    Show more